TimeCDT,TemperatureF,Dew PointF,Humidity,Sea Level PressureIn,VisibilityMPH,Wind Direction,Wind SpeedMPH,Gust SpeedMPH,PrecipitationIn,Events,Conditions,WindDirDegrees,DateUTC
12:56 AM,66.9,62.1,84,30.05,10.0,SSE,5.8,-,N/A,,Clear,160,2013-05-10 05:56:00
1:56 AM,66.9,63.0,87,30.03,10.0,South,4.6,-,N/A,,Clear,170,2013-05-10 06:56:00
2:56 AM,66.0,63.0,90,30.00,10.0,SSE,5.8,-,N/A,,Clear,150,2013-05-10 07:56:00
3:56 AM,66.9,64.0,90,30.01,10.0,South,5.8,-,N/A,,Clear,170,2013-05-10 08:56:00
4:56 AM,66.9,64.9,93,30.02,10.0,SSE,4.6,-,N/A,,Clear,150,2013-05-10 09:56:00
5:21 AM,66.2,64.4,94,30.02,10.0,SSE,6.9,-,N/A,,Mostly Cloudy,150,2013-05-10 10:21:00
5:56 AM,66.9,64.9,93,30.01,7.0,South,3.5,-,N/A,,Overcast,190,2013-05-10 10:56:00
6:12 AM,68.0,64.4,88,30.02,7.0,South,3.5,-,N/A,,Overcast,190,2013-05-10 11:12:00
6:56 AM,68.0,64.9,90,30.04,7.0,SE,4.6,-,N/A,,Overcast,140,2013-05-10 11:56:00
7:56 AM,69.1,66.0,90,30.06,4.0,South,5.8,-,0.00,Rain,Light Rain,170,2013-05-10 12:56:00
8:24 AM,68.0,66.2,94,30.09,4.0,South,4.6,-,0.00,Rain-Thunderstorm,Light Thunderstorms and Rain,190,2013-05-10 13:24:00
8:56 AM,66.9,64.9,93,30.12,3.0,NW,4.6,-,0.01,Rain-Thunderstorm,Light Thunderstorms and Rain,310,2013-05-10 13:56:00
9:24 AM,68.0,66.2,94,30.14,3.0,NW,4.6,-,0.02,Rain-Thunderstorm,Light Thunderstorms and Rain,320,2013-05-10 14:24:00
9:49 AM,68.0,66.2,94,30.14,3.0,Calm,Calm,-,0.04,Rain-Thunderstorm,Light Thunderstorms and Rain,0,2013-05-10 14:49:00
9:56 AM,68.0,66.0,93,30.13,3.0,NNW,3.5,-,0.04,Rain-Thunderstorm,Light Thunderstorms and Rain,340,2013-05-10 14:56:00
10:18 AM,68.0,66.2,94,30.15,2.0,Calm,Calm,-,0.05,Rain-Thunderstorm,Heavy Thunderstorms and Rain,0,2013-05-10 15:18:00
10:35 AM,68.0,66.2,94,30.14,2.0,Variable,4.6,-,0.14,Rain-Thunderstorm,Heavy Thunderstorms and Rain,0,2013-05-10 15:35:00
10:41 AM,69.8,64.4,83,30.16,2.0,WSW,5.8,-,0.15,Rain-Thunderstorm,Heavy Thunderstorms and Rain,250,2013-05-10 15:41:00
10:56 AM,68.0,66.0,93,30.11,2.0,ESE,9.2,-,0.23,Rain-Thunderstorm,Heavy Thunderstorms and Rain,120,2013-05-10 15:56:00
11:20 AM,68.0,64.4,88,30.06,3.0,SE,18.4,24.2,0.11,Rain,Rain,140,2013-05-10 16:20:00
11:27 AM,66.2,64.4,94,30.05,3.0,SSE,23.0,-,N/A,Rain-Thunderstorm,Light Thunderstorms and Rain,150,2013-05-10 16:27:00
11:56 AM,66.9,59.0,76,29.96,3.0,South,28.8,50.6,0.13,Rain-Thunderstorm,Thunderstorms and Rain,170,2013-05-10 16:56:00
12:07 PM,66.2,59.0,78,30.00,4.0,SSW,12.7,25.3,0.00,Rain,Light Rain,200,2013-05-10 17:07:00
12:56 PM,68.0,61.0,78,30.02,7.0,SW,9.2,-,0.00,,Mostly Cloudy,220,2013-05-10 17:56:00
1:56 PM,71.1,60.1,68,30.01,10.0,SSW,10.4,-,N/A,,Mostly Cloudy,210,2013-05-10 18:56:00
2:56 PM,75.0,61.0,62,29.98,10.0,SSW,9.2,-,N/A,,Mostly Cloudy,210,2013-05-10 19:56:00
3:56 PM,73.0,61.0,66,29.97,10.0,SW,13.8,-,N/A,,Mostly Cloudy,220,2013-05-10 20:56:00
4:56 PM,72.0,63.0,73,29.96,10.0,WSW,5.8,-,N/A,,Mostly Cloudy,250,2013-05-10 21:56:00
5:56 PM,70.0,63.0,78,29.96,10.0,WSW,5.8,-,N/A,,Overcast,250,2013-05-10 22:56:00
6:56 PM,70.0,63.0,78,30.03,10.0,WSW,9.2,17.3,N/A,,Overcast,240,2013-05-10 23:56:00
7:56 PM,66.9,63.0,87,30.04,10.0,SW,6.9,-,0.00,Rain,Light Rain,230,2013-05-11 00:56:00
8:56 PM,66.0,63.0,90,29.96,10.0,ESE,10.4,-,0.01,,Overcast,120,2013-05-11 01:56:00
9:56 PM,66.0,63.0,90,29.96,10.0,South,5.8,-,N/A,,Overcast,170,2013-05-11 02:56:00
10:56 PM,64.0,62.1,93,30.00,6.0,WNW,4.6,-,N/A,,Mostly Cloudy,300,2013-05-11 03:56:00
11:10 PM,64.4,62.6,94,30.01,7.0,NW,5.8,-,N/A,,Mostly Cloudy,310,2013-05-11 04:10:00
11:56 PM,64.9,63.0,93,30.02,8.0,NW,3.5,-,N/A,,Overcast,320,2013-05-11 04:56:00